Weather History for KVCT - July, 2013

Change the Weather History Date:

Wednesday, July 31, 2013

  Actual Average Record
Temperature  
Mean Temperature 86 °F 84 °F  
Max Temperature 99 °F 95 °F 103 °F (1913)
Min Temperature 72 °F 74 °F 69 °F (1978)
Degree Days  
Heating Degree Days 0 0  
Month to date heating degree days 0 0  
Since 1 June heating degree days 0 0  
Since 1 July heating degree days 0 0  
Cooling Degree Days 21 19  
Month to date cooling degree days 611 586  
Year to date cooling degree days 1837 1753  
Since 1 June cooling degree days 1203 1094  
Growing Degree Days 35 (Base 50)    
Moisture  
Dew Point 72 °F    
Average Humidity 69    
Maximum Humidity 100    
Minimum Humidity 38    
Precipitation  
Precipitation 0.00 in 0.10 in 2.10 in (1994)
Month to date precipitation 3.53 4.18  
Year to date precipitation 13.09 24.02  
Snow  
Snow 0.00 in - - ()
Month to date snowfall 0.0  
Since 1 June snowfall 0.0  
Since 1 July snowfall 0.0  
Snow Depth 0.00 in    
Sea Level Pressure  
Sea Level Pressure 30.04 in    
Wind  
Wind Speed 7 mph (South)    
Max Wind Speed 20 mph    
Max Gust Speed 23 mph    
Visibility 6 miles    
Events Fog    
T = Trace of Precipitation, MM = Missing Value Source: NWS Daily Summary

Daily Weather History Graph

Daily Weather History Graph

Search for Another Location

Airport or City:

Trip Planner

Search our weather history database for the weather conditions in past years. The results will help you decide how hot, cold, wet, or windy it might be!

Date:

Astronomy

Jul. 31, 2013 Rise Set
Actual Time 6:48 AM CDT 8:19 PM CDT
Civil Twilight 6:22 AM CDT 8:45 PM CDT
Nautical Twilight 5:52 AM CDT 9:15 PM CDT
Astronomical Twilight 5:20 AM CDT 9:47 PM CDT
Moon 1:44 AM CDT (7/31) 3:35 PM CDT (7/31)
Length of Visible Light 14h 22m
Length of Day
13h 31m
Waning Crescent, 31% of the Moon is Illuminated
Jul 31
Waning Crescent
Aug 6
New
Aug 14
First Quarter
Aug 20
Full
Aug 28
Last Quarter

Hourly Weather History & Observations

Time (CDT) Temp. Heat Index Dew Point Humidity Pressure Visibility Wind Dir Wind Speed Gust Speed Precip Events Conditions
12:51 AM 77.0 °F - 73.9 °F 90% 30.07 in 8.0 mi SSE 5.8 mph - N/A   Clear
1:51 AM 75.9 °F - 73.9 °F 94% 30.06 in 7.0 mi South 5.8 mph - N/A   Partly Cloudy
2:51 AM 75.0 °F - 73.0 °F 94% 30.06 in 5.0 mi Calm Calm - N/A   Clear
3:24 AM 73.4 °F - 71.6 °F 94% 30.06 in 2.5 mi ENE 3.5 mph - N/A   Clear
3:51 AM 73.0 °F - 72.0 °F 96% 30.06 in 2.0 mi Calm Calm - N/A   Clear
4:02 AM 71.6 °F - 71.6 °F 100% 30.06 in 1.2 mi Calm Calm - N/A   Clear
4:04 AM 71.6 °F - 71.6 °F 100% 30.06 in 0.8 mi Calm Calm - N/A   Mist
4:14 AM 71.6 °F - 71.6 °F 100% 30.05 in 0.2 mi Calm Calm - N/A Fog Fog
4:18 AM 71.6 °F - 71.6 °F 100% 30.06 in 1.0 mi Calm Calm - N/A   Mist
4:20 AM 71.6 °F - 71.6 °F 100% 30.06 in 3.0 mi Calm Calm - N/A   Partly Cloudy
4:24 AM 71.6 °F - 71.6 °F 100% 30.06 in 1.8 mi Calm Calm - N/A   Scattered Clouds
4:27 AM 71.6 °F - 71.6 °F 100% 30.06 in 1.0 mi Calm Calm - N/A   Mist
4:38 AM 73.4 °F - 71.6 °F 94% 30.06 in 1.5 mi ESE 3.5 mph - N/A   Partly Cloudy
4:51 AM 73.0 °F - 71.1 °F 93% 30.05 in 1.2 mi Calm Calm - N/A   Partly Cloudy
4:58 AM 71.6 °F - 71.6 °F 100% 30.06 in 2.5 mi South 4.6 mph - N/A   Partly Cloudy
5:05 AM 71.6 °F - 71.6 °F 100% 30.06 in 5.0 mi South 4.6 mph - N/A   Scattered Clouds
5:51 AM 73.9 °F - 73.0 °F 97% 30.06 in 5.0 mi South 3.5 mph - N/A   Partly Cloudy
6:29 AM 73.4 °F - 73.4 °F 100% 30.07 in 1.5 mi Calm Calm - N/A   Clear
6:35 AM 71.6 °F - 71.6 °F 100% 30.07 in 0.8 mi Calm Calm - N/A   Clear
6:51 AM 72.0 °F - 71.1 °F 97% 30.08 in 0.5 mi Calm Calm - N/A Fog Fog
6:55 AM 71.6 °F - 71.6 °F 100% 30.08 in 0.2 mi Calm Calm - N/A Fog Fog
7:02 AM 73.4 °F - 71.6 °F 94% 30.08 in 0.2 mi Calm Calm - N/A Fog Fog
7:23 AM 73.4 °F - 71.6 °F 94% 30.09 in 1.0 mi Calm Calm - N/A   Clear
7:51 AM 75.9 °F - 75.0 °F 97% 30.09 in 3.0 mi Calm Calm - N/A   Clear
8:51 AM 81.0 °F 87.3 °F 75.9 °F 85% 30.10 in 8.0 mi SSW 6.9 mph - N/A   Clear
9:51 AM 86.0 °F 93.8 °F 73.9 °F 67% 30.10 in 10.0 mi SSW 10.4 mph - N/A   Clear
10:51 AM 88.0 °F 95.6 °F 73.0 °F 61% 30.09 in 10.0 mi SW 10.4 mph - N/A   Scattered Clouds
11:51 AM 90.0 °F 96.4 °F 71.1 °F 54% 30.07 in 10.0 mi SSW 9.2 mph - N/A   Clear
12:51 PM 93.0 °F 97.4 °F 68.0 °F 44% 30.06 in 10.0 mi SSW 10.4 mph - N/A   Clear
1:51 PM 93.9 °F 99.1 °F 69.1 °F 44% 30.03 in 10.0 mi Variable 3.5 mph - N/A   Clear
2:51 PM 96.1 °F 101.0 °F 68.0 °F 40% 30.01 in 10.0 mi WSW 5.8 mph - N/A   Clear
3:51 PM 99.0 °F 104.2 °F 68.0 °F 36% 29.99 in 10.0 mi ENE 3.5 mph - N/A   Clear
4:51 PM 99.0 °F 108.5 °F 72.0 °F 42% 29.96 in 10.0 mi South 11.5 mph - N/A   Partly Cloudy
5:51 PM 95.0 °F 104.5 °F 73.0 °F 49% 29.96 in 10.0 mi South 16.1 mph - N/A   Clear
6:51 PM 91.9 °F 98.4 °F 71.1 °F 50% 29.96 in 10.0 mi SSE 17.3 mph - N/A   Clear
7:51 PM 87.1 °F 93.6 °F 72.0 °F 61% 29.96 in 10.0 mi South 12.7 mph - N/A   Clear
8:51 PM 84.0 °F 91.2 °F 73.9 °F 72% 29.96 in 10.0 mi South 13.8 mph - N/A   Unknown
9:51 PM 82.0 °F 89.4 °F 75.9 °F 82% 29.98 in 10.0 mi South 9.2 mph - N/A   Clear
10:51 PM 79.0 °F - 75.0 °F 88% 29.99 in 10.0 mi South 5.8 mph - N/A   Clear
11:51 PM 79.0 °F - 75.9 °F 90% 30.00 in 9.0 mi SSW 6.9 mph - N/A   Clear